Flag for Greece Weather past 2 weeks in Iráklion, Crete, Greece

Now
70 °F

Passing clouds.


Feels Like: 70 °F
Forecast: 68 / 78 °F
Wind: 9 mph from Northwest

Location: Heraklion Airport

Current Time: Oct 2, 2014 at 12:25:28 AM

Latest Report: Oct 1, 2014 at 11:50 PM


Visibility: N/A

Pressure: 30.09 "Hg

Humidity: 73%

Dew point: 61 °F

Location of IráklionLocation

Historic Weather in Iráklion — Graph

°F

Iráklion temperature yesterday

Maximum temperature yesterday: 75 °F (at 11:50 AM)
Minimum temperature yesterday: 68 °F (at 12:50 AM)
Average temperature yesterday: 72 °F

Past Weeks' High & Low Weather Summary

 TemperatureHumidityPressure
High91 °F (Sep 23, 11:50 AM)94% (Sep 24, 1:50 AM)30.18 "Hg (Sep 24, 1:50 AM)
Low63 °F (Sep 27, 5:20 PM)33% (Sep 23, 10:20 AM)29.80 "Hg (Sep 23, 2:50 PM)
Average75 °F65%29.99 "Hg
* Reported Sep 16 11:20 PM — Oct 1 11:20 PM, Iráklion, Weather by CustomWeather, © 2014

Note: Actual official high and low records may vary slightly from our data, if they occured in-between our weather recording intervals... More about our weather records

Advertising

Iráklion weather history for previous 24 hours

 ConditionsComfort  
Time TempWeatherWind HumidityBarometerVisibility
11:20 PM
Oct 1
70 °FPassing clouds.3 mph64%30.07 "HgN/A
10:50 PM70 °FPassing clouds.10 mph64%30.07 "HgN/A
10:20 PM72 °FPassing clouds.10 mph61%30.09 "HgN/A
9:50 PM72 °FPassing clouds.10 mph61%30.09 "HgN/A
9:20 PM72 °FPassing clouds.10 mph61%30.07 "HgN/A
8:50 PM72 °FPassing clouds.13 mph61%30.07 "HgN/A
8:20 PM72 °FPassing clouds.12 mph61%30.07 "HgN/A
7:50 PM72 °FPassing clouds.13 mph61%30.07 "HgN/A
7:20 PM72 °FPassing clouds.12 mph61%30.07 "HgN/A
6:50 PM72 °FPassing clouds.13 mph61%30.07 "HgN/A
6:20 PM73 °FPassing clouds.13 mph57%30.09 "HgN/A
5:50 PM73 °FPassing clouds.13 mph57%30.09 "HgN/A
5:20 PM75 °FPassing clouds.13 mph54%30.09 "HgN/A
4:50 PM75 °FPassing clouds.14 mph54%30.09 "HgN/A
4:20 PM75 °FPassing clouds.15 mph54%30.09 "HgN/A
3:50 PM75 °FPassing clouds.15 mph54%30.09 "HgN/A
3:20 PM75 °FPassing clouds.16 mph54%30.09 "HgN/A
2:50 PM75 °FPassing clouds.15 mph54%30.09 "HgN/A
2:20 PM75 °FPassing clouds.15 mph54%30.09 "HgN/A
1:50 PM75 °FPassing clouds.14 mph54%30.09 "HgN/A
1:20 PM75 °FPassing clouds.15 mph54%30.12 "HgN/A
12:50 PM75 °FPassing clouds.13 mph54%30.12 "HgN/A
12:20 PM75 °FPassing clouds.13 mph54%30.12 "HgN/A
11:50 AM75 °FPassing clouds.13 mph54%30.12 "HgN/A
11:20 AM73 °FPassing clouds.15 mph53%30.12 "HgN/A
10:50 AM73 °FPassing clouds.15 mph53%30.12 "HgN/A
10:20 AM73 °FPassing clouds.15 mph57%30.12 "HgN/A
9:50 AM73 °FPassing clouds.14 mph57%30.12 "HgN/A
9:20 AM72 °FPassing clouds.14 mph57%30.12 "HgN/A
8:50 AM70 °FPassing clouds.13 mph64%30.12 "HgN/A
7:50 AM70 °FPassing clouds.12 mph60%30.12 "HgN/A
7:20 AM68 °FPassing clouds.13 mph64%30.09 "HgN/A
6:50 AM68 °FPassing clouds.14 mph64%30.09 "HgN/A
5:50 AM68 °FPassing clouds.13 mph64%30.09 "HgN/A
3:50 AM68 °FPassing clouds.14 mph60%30.09 "HgN/A
3:20 AM68 °FPassing clouds.13 mph64%30.12 "HgN/A
2:50 AM68 °FPassing clouds.10 mph64%30.12 "HgN/A
1:50 AM68 °FPassing clouds.10 mph64%30.12 "HgN/A
1:20 AM68 °FPassing clouds.10 mph60%30.15 "HgN/A
12:50 AM68 °FPassing clouds.13 mph60%30.15 "HgN/A
12:20 AM70 °FPassing clouds.13 mph57%30.15 "HgN/A
Weather by CustomWeather, © 2014

See weather overviewHow to use our weather pages